#timestamp,LO_Frequency,Hit,StdDev 
1566061215.3,286046998.4,N
1566061235.2,286047000.4,N
1566061255.9,286047001.1,N
1566061275.7,286047001.1,N
1566061295.6,286046998.5,N
1566061315.4,286046998.6,N
1566061335.2,286047001.0,N
1566061355.1,286047000.7,N
1566061356.0,286047000.7,N
1566061375.8,286046999.9,N
1566061395.7,286047001.0,N
1566061415.5,286046998.6,N
1566061435.3,286046998.1,N
1566061455.2,286047000.7,N
1566061475.9,286046998.4,N
1566061495.7,286046996.7,N
1566061515.6,286047000.8,N
1566061535.4,286047001.1,N
1566061555.3,286046996.9,N
1566061575.1,286046996.6,N
1566061576.0,286046996.6,N
1566061595.8,286047001.1,N
1566061615.7,286047001.1,N
1566061635.5,286046999.0,N
1566061655.3,286046998.7,N
1566061675.2,286047000.0,N
1566061695.0,286047002.0,N
1566061695.9,286047002.0,N
1566061715.8,286047002.1,N
1566061735.6,286046999.7,N
1566061755.4,286047000.2,N
1566061775.3,286047002.8,N
1566061795.1,286047002.1,N
1566061815.8,286047000.0,N
1566061835.7,286046999.9,N
1566061855.5,286047000.8,N
1566061875.4,286047000.0,N
1566061895.2,286047002.7,N
1566061915.0,286046998.4,N
1566061915.9,286046998.4,N
1566061935.8,286046999.3,N
1566061955.6,286046998.4,N
1566061975.4,286046998.4,N
1566061995.3,286047000.9,N
1566062015.1,286047000.9,N
1566062035.9,286047000.6,N
1566062055.7,286046998.4,N
1566062075.5,286047000.4,N
1566062095.4,286047000.5,N
1566062115.2,286047002.1,N
1566062135.0,286047001.5,N
1566062136.0,286047001.5,N
1566062155.8,286047002.8,N
1566062175.6,286047001.5,N
1566062195.5,286047003.8,N
1566062215.3,286047003.5,N
1566062235.1,286047001.5,N
1566062255.9,286047002.5,N
1566062275.7,286047003.8,N
1566062295.6,286047006.0,Y
1566062315.4,286047003.4,P
1566062335.2,286047003.4,N
1566062355.1,286047002.2,N
1566062356.0,286047002.2,N
1566062375.8,286047001.6,N
1566062395.6,286047001.4,N
1566062415.5,286047003.5,Y
1566062435.3,286047002.0,P
1566062455.2,286047000.4,P
1566062475.9,286047000.1,N
1566062495.7,286046998.5,N
1566062515.6,286046997.2,N
1566062535.4,286046996.5,N
1566062555.2,286046999.3,N
1566062575.1,286046998.6,N
1566062576.0,286046998.6,N
1566062595.8,286046998.6,N
1566062615.7,286046998.3,N
1566062635.5,286046999.1,N
1566062655.4,286046998.3,N
1566062675.2,286046998.8,N
1566062695.0,286046999.4,N
1566062695.9,286046999.4,N
1566062715.8,286046997.4,N
1566062735.6,286046994.9,Y
1566062755.4,286046996.8,P
1566062775.3,286046996.9,N
1566062795.1,286046995.1,P
1566062815.9,286046997.1,N
1566062835.7,286046998.6,N
1566062855.5,286046998.6,N
1566062875.4,286046998.4,N
1566062895.2,286047001.1,N
1566062915.0,286047000.5,N
1566062915.9,286047000.5,N
1566062935.8,286047000.4,N
1566062955.6,286047002.0,N
1566062975.5,286047002.4,N
1566062995.3,286047002.2,N
1566063015.1,286047000.0,N
1566063035.9,286047002.0,N
1566063055.7,286047001.8,N
1566063075.5,286046998.1,N
1566063095.4,286047001.0,N
1566063115.2,286046998.6,N
1566063135.1,286046998.1,N
1566063136.0,286046998.1,N
1566063155.8,286046999.9,N
1566063175.6,286046999.9,N
1566063195.5,286047001.9,N
1566063215.3,286047001.7,N
1566063235.1,286047002.1,N
1566063255.9,286047002.4,N
1566063275.7,286047000.5,N
1566063295.6,286046998.9,N
1566063315.4,286046998.9,N
1566063335.2,286046999.3,N
1566063355.1,286047000.7,N
1566063356.0,286047000.7,N
1566063375.8,286046998.6,N
1566063395.6,286047000.9,N
1566063415.5,286046998.3,N
1566063435.3,286046996.9,N
1566063455.2,286046999.4,N
1566063475.9,286046999.2,N
1566063495.7,286046996.7,N
1566063515.6,286046999.6,N
1566063535.4,286046998.7,N
1566063555.2,286046999.9,N
1566063575.1,286047000.1,N
1566063576.0,286047000.1,N
1566063595.8,286047002.1,N
1566063615.7,286047000.1,N
1566063635.5,286047000.0,N
1566063655.3,286046999.7,N
1566063675.2,286047000.3,N
1566063695.0,286047001.0,N
1566063695.9,286047001.0,N
1566063715.8,286047002.8,N
1566063735.6,286046999.7,N
1566063755.4,286046999.9,N
1566063775.3,286047002.4,N
1566063795.1,286046999.7,N
1566063815.8,286046999.7,N
1566063835.7,286047000.3,N
1566063855.5,286046998.2,N
1566063875.4,286046999.4,N
1566063895.2,286046999.4,N
1566063915.0,286047001.2,N
1566063915.9,286047001.2,N
1566063935.8,286047000.0,N
1566063955.6,286047002.7,N
1566063975.4,286047002.8,N
1566063995.3,286046998.8,N
1566064015.1,286046996.5,N
1566064035.9,286046998.9,N
1566064055.7,286047000.7,N
1566064075.5,286047002.3,N
1566064095.4,286046999.8,N
1566064115.2,286047002.1,N
1566064135.0,286047002.8,N
1566064135.9,286047002.8,N
1566064155.8,286047002.7,N
1566064175.6,286047000.0,N
1566064195.5,286046999.9,N
1566064215.3,286047001.3,N
1566064235.1,286047004.0,N
1566064255.9,286047003.1,N
1566064275.7,286047001.4,N
1566064295.5,286047002.6,N
1566064315.4,286047002.1,N
1566064335.2,286047002.3,N
1566064355.1,286047004.1,N
1566064356.0,286047004.1,N
1566064375.8,286047003.8,N
1566064395.6,286047004.0,N
1566064415.5,286047002.8,N
1566064435.3,286047002.2,N
1566064455.1,286047001.8,N
1566064475.9,286047004.2,N
1566064495.7,286047003.4,N
1566064515.6,286047004.0,N
1566064535.4,286047004.0,N
1566064555.2,286047002.1,N
1566064575.1,286047002.0,N
1566064576.0,286047002.0,N
1566064595.8,286047002.0,N
1566064615.6,286047002.0,N
1566064635.5,286047000.4,N
1566064655.3,286046998.1,N
1566064675.2,286047000.9,N
1566064695.9,286047002.8,N
1566064715.7,286047002.1,N
1566064735.6,286047004.2,N
1566064755.4,286047006.0,Y
1566064775.2,286047002.0,P
1566064795.1,286047001.5,P
1566064796.0,286047001.5,P
